Regional Weather Roundup
Issued by NWS

Home | Current Version | Previous Version | Text Only | Print | Product List | Glossary Off
Versions: 1 2 3 4 5 6 7 8 9 10 11 12 13 14 15 16 17 18 19 20 21 22 23 24 25 26 27 28 29 30 31 32 33 34 35 36 37 38 39 40 41 42 43 44 45 46 47 48 49 50

381
ASUS43 KMPX 252001
RWRMN
WEATHER ROUNDUP FOR MINNESOTA
NATIONAL WEATHER SERVICE TWIN CITIES/CHANHASSEN MN
300 PM CDT WED MAY 25 2016


NOTE: "FAIR" INDICATES FEW OR NO CLOUDS BELOW 12,000 FEET WITH NO
SIGNIFICANT WEATHER AND/OR OBSTRUCTIONS TO VISIBILITY. N/A MEANS
CURRENT SKY AND/OR WEATHER CONDITIONS ARE NOT AVAILABLE.

MNZ060>063-068>070-252100-
   Twin Cities Metro

CITY           SKY/WX    TMP DP  RH WIND       PRES   REMARKS
TWIN CITIES    CLOUDY    74  65  73 E12       29.83S
ST PAUL        CLOUDY    72  65  78 E14G20    29.84S
CRYSTAL        PTSUNNY   72  64  76 E8        29.83F
BLAINE         CLOUDY    72  68  88 E7        29.84S
EDEN PRAIRIE   PTSUNNY   74  66  76 NE7       29.82F
SOUTH ST PAUL  CLOUDY    73  67  81 SE8       29.84S
LAKE ELMO      LGT RAIN  68  66  94 NE3       29.86S
$$
MNZ001>005-007-008-013>017-022>024-027-028-252100-
   Northwest Minnesota

CITY           SKY/WX    TMP DP  RH WIND       PRES   REMARKS
BEMIDJI        LGT RAIN  61  57  88 E14       29.83F
HALLOCK        RAIN      61  57  88 E13       29.83F
ROSEAU         CLOUDY    57  54  88 E12G20    29.85S
WARROAD        RAIN      59  55  88 E13       29.88F
THIEF RVR FALL CLOUDY    63  57  82 E12       29.81F
CROOKSTON      LGT RAIN  61  61 100 E9        29.77F
FOSSTON        LGT RAIN  59  57  94 E14G20    29.79F
DETROIT LAKES  DRIZZLE   61  59  94 SE16G28   29.74F
MOORHEAD       RAIN      63  61  94 SE13      29.70F
PARK RAPIDS    LGT RAIN  62  58  86 E14G23    29.79F
MAHNOMEN       LGT RAIN  61  56  84 SE22      29.75F
$$
MNZ006-009>011-018-025>026-252100-
   North Central Minnesota

CITY           SKY/WX    TMP DP  RH WIND       PRES   REMARKS
BAUDETTE       CLOUDY    62  57  83 E10       29.88F
FLAG ISLAND    CLOUDY    61  54  77 NE6       29.91F
INTL FALLS     CLOUDY    66  55  67 E13       29.92F
WASKISH        CLOUDY    66  59  77 E7        29.86F
BIG FORK       CLOUDY    68  54  60 SE7       29.89F
LONGVILLE      LGT RAIN  59  57  94 E8        29.86S
GRAND RAPIDS   RAIN      59  54  83 VRB5      29.92F
CRANE LAKE     PTSUNNY   66  52  59 CALM      29.96F
ORR            CLOUDY    70  50  49 SE6       29.90F
COOK           CLOUDY    70  52  52 SE7G20    29.92F
WALKER         LGT RAIN  59  57  91 E9        29.85S
$$
MNZ012-019>021-037-252100-
   Northeast Minnesota

CITY           SKY/WX    TMP DP  RH WIND       PRES   REMARKS
DULUTH         FOG       51  49  92 E17G23    29.95F VSB 3/4
ELY            CLOUDY    64  46  52 E8G16     29.95F
HIBBING        CLOUDY    65  52  62 S10       29.92F
EVELETH        CLOUDY    64  48  55 E9G16     29.93F
DULUTH HARBOR  CLOUDY    45  45 100 NE24      29.98S FOG
TWO HARBORS    CLOUDY    57  52  82 E14       29.94F
SILVER BAY     CLOUDY    54  48  82 NE15G22   29.96F
GRAND MARAIS     N/A     48  43  82 E15       30.03F
G MARAIS ARPRT CLOUDY    59  45  58 E10       30.03F
$$
MNZ029>031-032-039>041-046>048-054>057-064-252100-
   West Central Minnesota

CITY           SKY/WX    TMP DP  RH WIND       PRES   REMARKS
FERGUS FALLS   CLOUDY    66  63  88 SE8       29.69F
WHEATON        MOSUNNY   75  63  64 SW15G24   29.74S
MORRIS         SUNNY     79  59  50 SW23      29.74S
ALEXANDRIA     CLOUDY    69  63  81 SE18G25   29.78F
ELBOW LAKE     CLOUDY    70  60  70 W23       29.74S
WADENA         PTSUNNY   63  61  94 SE16G24   29.77F
GLENWOOD       TSTM      66  64  94 SE13      29.78S
APPLETON       MOSUNNY   79  55  44 SW13      29.76R
BENSON         MOSUNNY   79  57  47 SW16G26   29.75F
ORTONVILLE     PTSUNNY   75  59  57 S10G17    29.76S
MADISON        MOSUNNY   77  57  50 SW17      29.77S
WILLMAR        PTSUNNY   75  66  73 SE17G25   29.80F
$$
MNZ033>034-036-042>043-049>051-058-059-252100-
   Central Minnesota

CITY           SKY/WX    TMP DP  RH WIND       PRES   REMARKS
ST CLOUD       PTSUNNY   68  64  87 E14       29.83F
SAUK CENTRE    CLOUDY    70  63  78 SE18      29.80F
PAYNESVILLE    PTSUNNY   72  64  76 SE15      29.81F
AITKIN         MIX PCPN  61  54  77 E9        29.86F
PINE RIVER     LGT RAIN  59  57  94 E13       29.88F
BRAINERD       CLOUDY    62  59  90 SE8G20    29.85F
STAPLES        LGT RAIN  64  61  88 E10G21    29.80F
LONG PRAIRIE   PTSUNNY   64  59  82 E21       29.81F
LITTLE FALLS   CLOUDY    66  61  82 E10G22    29.82F
LITCHFIELD     MOSUNNY   73  68  83 SE12      29.83S
BUFFALO        CLOUDY    71  64  77 E8        29.85S
MAPLE LAKE     CLOUDY    69  65  88 E6        29.86R
HUTCHINSON     CLOUDY    73  67  82 SE12      29.83F
$$
MNZ037-044-045-052-053-252100-
   East Central Minnesota

CITY           SKY/WX    TMP DP  RH WIND       PRES   REMARKS
PRINCETON      CLOUDY    72  64  78 E8        29.85S
MORA           PTSUNNY   61  59  94 NE5       29.88F
CAMBRIDGE      CLOUDY    72  61  68 E7        29.84F
RUSH CITY      CLOUDY    64  62  91 CALM      29.87R
MOOSE LAKE     LGT RAIN  50  46  87 NE9       29.92R
HINCKLEY       CLOUDY    61  59  94 N6        29.89S
CLOQUET        CLOUDY    50  48  93 E14       29.95R FOG
MCGREGOR       CLOUDY    55  54  94 E16       29.91F
$$
MNZ071>073-080-081-089-090-097-098-252100-
   Southwest Minnesota

CITY           SKY/WX    TMP DP  RH WIND       PRES   REMARKS
MONTEVIDEO     PTSUNNY   79  59  50 W15G23    29.78F
GRANITE FALLS  PTSUNNY   81  61  51 S16G25    29.80S
CANBY          MOSUNNY   80  62  54 SW8G20    29.79S
MARSHALL         N/A     78  60  53 SW17      29.79
REDWOOD FALLS  MOSUNNY   80  62  54 SW17      29.79F
OLIVIA         CLOUDY    73  64  73 SE10      29.79F
PIPESTONE      MOSUNNY   73  61  64 SW14      29.82S
WINDOM         CLOUDY    77  63  61 CALM      29.82S
WORTHINGTON    MOSUNNY   75  62  64 SW12G21   29.83F
JACKSON        CLOUDY    79  55  44 SW14      29.83S
TRACY          MOSUNNY   78  61  56 SW18G24   29.81F
SLAYTON        PTSUNNY   76  58  55 SW16G23   29.83S
$$
MNZ065>067-074>077-082>085-091>093-252100-
   South Central Minnesota

CITY           SKY/WX    TMP DP  RH WIND       PRES   REMARKS
MANKATO        CLOUDY    75  61  60 SE7       29.82S
NEW ULM        CLOUDY    75  63  64 SE8       29.80F
ST JAMES       CLOUDY    73  59  60 S12       29.81S
FAIRMONT       CLOUDY    73  57  56 S9        29.81F
GLENCOE        CLOUDY    75  68  78 E9        29.83F
FARIBAULT      CLOUDY    72  63  73 E13       29.84S
OWATONNA       HVY RAIN  66  63  88 CALM      29.85R
WASECA         CLOUDY    66  63  88 S9        29.85S
ALBERT LEA     CLOUDY    73  63  68 SW9G16    29.83F
$$
MNZ078>079-086>088-094>096-252100-
   Southeast Minnesota

CITY           SKY/WX    TMP DP  RH WIND       PRES   REMARKS
ROCHESTER      CLOUDY    67  65  93 S5        29.86F
RED WING       HVY RAIN  66  64  94 S6        29.85F
STANTON        LGT RAIN  69  62  78 SE9       29.82F
DODGE CENTER   LGT RAIN  64  63  94 SE7       29.85F
WINONA         DRIZZLE   70  66  88 CALM      29.84F
AUSTIN         CLOUDY    72  63  73 S8G18     29.84F
PRESTON        CLOUDY    67  63  89 S12       29.87R
$$
ABBREVIATIONS USED IN REMARKS
   TC - TEMPERATURES IN CELSIUS
  WCI - WIND CHILL INDEX
   HX - HEAT INDEX
  VSB - VISIBILITY
$$




USA.gov is the U.S. government's official web portal to all federal, state and local government web resources and services.